timestamp,wind_dir_avg,wind_spd_max_dir,wind_spd_avg,wind_spd_gust,battery_voltage,lat,long
2018-06-12 00:00:00+00:00,59.0,57.0,8.45,9.12,,47.59359,-54.27349
2018-06-12 00:10:00+00:00,59.0,51.0,7.83,8.85,,47.59359,-54.27349
2018-06-12 00:20:00+00:00,66.0,67.0,7.21,8.04,,47.59359,-54.27349
2018-06-12 00:30:00+00:00,62.0,59.0,7.37,8.02,,47.59359,-54.27349
2018-06-12 00:40:00+00:00,62.0,61.0,7.69,8.4,,47.59359,-54.27349
2018-06-12 00:50:00+00:00,69.0,67.0,6.91,7.73,,47.59359,-54.27349
2018-06-12 01:00:00+00:00,65.0,61.0,7.3,8.35,,47.59359,-54.27349
2018-06-12 01:10:00+00:00,69.0,71.0,6.72,7.31,,47.59359,-54.27349
2018-06-12 01:20:00+00:00,63.0,64.0,6.01,6.7,,47.59359,-54.27349
2018-06-12 01:30:00+00:00,66.0,65.0,6.1,6.55,,47.59359,-54.27349
2018-06-12 01:40:00+00:00,70.0,69.0,6.14,6.56,,47.59359,-54.27349
2018-06-12 01:50:00+00:00,70.0,72.0,5.09,5.58,,47.59359,-54.27349
2018-06-12 02:00:00+00:00,79.0,81.0,3.62,4.09,,47.59359,-54.27349
2018-06-12 02:10:00+00:00,65.0,66.0,4.27,5.07,,47.59359,-54.27349
2018-06-12 02:20:00+00:00,60.0,59.0,5.07,5.55,,47.59359,-54.27349
2018-06-12 02:30:00+00:00,67.0,68.0,5.35,5.89,,47.59359,-54.27349
2018-06-12 02:40:00+00:00,62.0,61.0,5.26,5.57,,47.59359,-54.27349
2018-06-12 02:50:00+00:00,56.0,56.0,4.81,5.33,,47.59359,-54.27349
2018-06-12 03:00:00+00:00,54.0,54.0,4.18,4.83,,47.59359,-54.27349
2018-06-12 03:10:00+00:00,51.0,52.0,3.87,4.3,,47.59359,-54.27349
2018-06-12 03:20:00+00:00,52.0,56.0,4.06,4.46,,47.59359,-54.27349
2018-06-12 03:30:00+00:00,53.0,55.0,4.42,4.74,,47.59359,-54.27349
2018-06-12 03:40:00+00:00,61.0,63.0,4.59,5.13,,47.59359,-54.27349
2018-06-12 03:50:00+00:00,69.0,70.0,4.35,4.76,,47.59359,-54.27349
2018-06-12 04:00:00+00:00,59.0,59.0,4.05,4.8,,47.59359,-54.27349
2018-06-12 04:10:00+00:00,50.0,52.0,4.61,5.02,,47.59359,-54.27349
2018-06-12 04:20:00+00:00,56.0,61.0,5.0,5.51,,47.59359,-54.27349
2018-06-12 04:30:00+00:00,64.0,71.0,4.73,5.57,,47.59359,-54.27349
2018-06-12 04:40:00+00:00,64.0,61.0,4.7,5.26,,47.59359,-54.27349
2018-06-12 04:50:00+00:00,62.0,66.0,3.7,4.42,,47.59359,-54.27349
2018-06-12 05:00:00+00:00,66.0,62.0,4.11,4.66,,47.59359,-54.27349
2018-06-12 05:10:00+00:00,55.0,53.0,3.41,3.95,,47.59359,-54.27349
2018-06-12 05:20:00+00:00,72.0,70.0,4.21,4.63,,47.59359,-54.27349
2018-06-12 05:30:00+00:00,60.0,58.0,4.43,5.18,,47.59359,-54.27349
2018-06-12 05:40:00+00:00,59.0,61.0,5.09,5.64,,47.59359,-54.27349
2018-06-12 05:50:00+00:00,56.0,58.0,5.35,5.97,,47.59359,-54.27349
2018-06-12 06:00:00+00:00,58.0,59.0,5.72,6.71,,47.59359,-54.27349
2018-06-12 06:10:00+00:00,59.0,57.0,6.17,6.9,,47.59359,-54.27349
2018-06-12 06:20:00+00:00,54.0,56.0,5.1,5.38,,47.59359,-54.27349
2018-06-12 06:30:00+00:00,64.0,64.0,5.03,5.77,,47.59359,-54.27349
2018-06-12 06:40:00+00:00,64.0,69.0,6.05,6.86,,47.59359,-54.27349
2018-06-12 06:50:00+00:00,35.0,37.0,4.71,5.44,,47.59359,-54.27349
2018-06-12 07:00:00+00:00,39.0,40.0,5.92,6.51,,47.59359,-54.27349
2018-06-12 07:10:00+00:00,47.0,43.0,5.44,6.53,,47.59359,-54.27349
2018-06-12 07:20:00+00:00,29.0,31.0,6.97,7.72,,47.59359,-54.27349
2018-06-12 07:30:00+00:00,18.0,16.0,6.95,8.02,,47.59359,-54.27349
2018-06-12 07:40:00+00:00,19.0,15.0,7.09,8.13,,47.59359,-54.27349
2018-06-12 07:50:00+00:00,21.0,19.0,5.03,5.69,,47.59359,-54.27349
2018-06-12 08:00:00+00:00,35.0,35.0,5.43,6.32,,47.59359,-54.27349
2018-06-12 08:10:00+00:00,37.0,39.0,6.37,7.01,,47.59359,-54.27349
2018-06-12 08:20:00+00:00,36.0,37.0,5.85,6.46,,47.59359,-54.27349
2018-06-12 08:30:00+00:00,31.0,35.0,6.01,7.0,,47.59359,-54.27349
2018-06-12 08:40:00+00:00,27.0,31.0,5.08,6.08,,47.59359,-54.27349
2018-06-12 08:50:00+00:00,29.0,28.0,4.19,4.52,,47.59359,-54.27349
2018-06-12 09:00:00+00:00,28.0,28.0,5.55,6.04,,47.59359,-54.27349
2018-06-12 09:10:00+00:00,27.0,28.0,3.91,4.57,,47.59359,-54.27349
2018-06-12 09:20:00+00:00,45.0,43.0,4.64,5.08,,47.59359,-54.27349
2018-06-12 09:30:00+00:00,38.0,43.0,3.59,4.32,,47.59359,-54.27349
2018-06-12 09:40:00+00:00,54.0,51.0,3.73,4.13,,47.59359,-54.27349
2018-06-12 09:50:00+00:00,50.0,49.0,3.95,4.24,,47.59359,-54.27349
2018-06-12 10:00:00+00:00,48.0,48.0,3.53,3.89,,47.59359,-54.27349
2018-06-12 10:10:00+00:00,56.0,54.0,3.26,3.68,,47.59359,-54.27349
2018-06-12 10:20:00+00:00,52.0,51.0,2.95,3.25,,47.59359,-54.27349
2018-06-12 10:30:00+00:00,63.0,61.0,2.96,3.35,,47.59359,-54.27349
2018-06-12 10:40:00+00:00,53.0,54.0,2.79,3.08,,47.59359,-54.27349
2018-06-12 10:50:00+00:00,32.0,25.0,2.35,2.82,,47.59359,-54.27349
2018-06-12 11:00:00+00:00,10.0,6.0,1.94,2.42,,47.59359,-54.27349
2018-06-12 11:10:00+00:00,30.0,31.0,2.44,2.75,,47.59359,-54.27349
2018-06-12 11:20:00+00:00,37.0,34.0,2.09,2.5,,47.59359,-54.27349
2018-06-12 11:30:00+00:00,40.0,51.0,1.8,2.09,,47.59359,-54.27349
2018-06-12 11:40:00+00:00,46.0,52.0,1.52,1.82,,47.59359,-54.27349
2018-06-12 11:50:00+00:00,81.0,89.0,0.99,1.31,,47.59359,-54.27349
2018-06-12 12:00:00+00:00,80.0,70.0,0.25,0.45,,47.59359,-54.27349
2018-06-12 12:10:00+00:00,6.0,342.0,0.25,0.46,,47.59359,-54.27349
2018-06-12 12:20:00+00:00,80.0,80.0,0.99,1.17,,47.59359,-54.27349
2018-06-12 12:30:00+00:00,83.0,74.0,1.72,2.4,,47.59359,-54.27349
2018-06-12 12:40:00+00:00,69.0,73.0,2.52,3.32,,47.59359,-54.27349
2018-06-12 12:50:00+00:00,78.0,76.0,2.41,2.87,,47.59359,-54.27349
2018-06-12 13:00:00+00:00,74.0,75.0,2.19,2.78,,47.59359,-54.27349
2018-06-12 13:10:00+00:00,74.0,72.0,1.55,1.89,,47.59359,-54.27349
2018-06-12 13:20:00+00:00,68.0,66.0,1.12,1.28,,47.59359,-54.27349
2018-06-12 13:30:00+00:00,152.0,163.0,0.72,0.92,,47.59359,-54.27349
2018-06-12 13:40:00+00:00,155.0,155.0,1.31,1.64,,47.59359,-54.27349
2018-06-12 13:50:00+00:00,142.0,134.0,1.64,1.93,,47.59359,-54.27349
2018-06-12 14:00:00+00:00,156.0,151.0,1.79,2.17,,47.59359,-54.27349
2018-06-12 14:10:00+00:00,175.0,176.0,1.88,2.09,,47.59359,-54.27349
2018-06-12 14:20:00+00:00,166.0,170.0,1.79,1.94,,47.59359,-54.27349
2018-06-12 14:30:00+00:00,157.0,155.0,2.02,2.33,,47.59359,-54.27349
2018-06-12 14:40:00+00:00,192.0,198.0,1.91,2.09,,47.59359,-54.27349
2018-06-12 14:50:00+00:00,195.0,194.0,1.86,2.01,,47.59359,-54.27349
2018-06-12 15:00:00+00:00,196.0,195.0,2.01,2.13,,47.59359,-54.27349
2018-06-12 15:10:00+00:00,229.0,229.0,3.0,3.29,,47.59359,-54.27349
2018-06-12 15:20:00+00:00,201.0,202.0,2.22,2.28,,47.59359,-54.27349
2018-06-12 15:30:00+00:00,232.0,233.0,4.05,4.54,,47.59359,-54.27349
2018-06-12 15:40:00+00:00,234.0,236.0,5.18,6.82,,47.59359,-54.27349
2018-06-12 15:50:00+00:00,235.0,238.0,6.74,8.02,,47.59359,-54.27349
2018-06-12 16:00:00+00:00,233.0,232.0,7.86,8.51,,47.59359,-54.27349
2018-06-12 16:10:00+00:00,233.0,237.0,7.33,8.37,,47.59359,-54.27349
2018-06-12 16:20:00+00:00,232.0,230.0,7.16,8.29,,47.59359,-54.27349
2018-06-12 16:30:00+00:00,231.0,233.0,7.01,7.74,,47.59359,-54.27349
2018-06-12 16:40:00+00:00,229.0,227.0,6.81,7.67,,47.59359,-54.27349
2018-06-12 16:50:00+00:00,231.0,236.0,7.59,8.58,,47.59359,-54.27349
2018-06-12 17:00:00+00:00,228.0,227.0,8.05,9.02,,47.59359,-54.27349
2018-06-12 17:10:00+00:00,224.0,226.0,7.87,8.98,,47.59359,-54.27349
2018-06-12 17:20:00+00:00,221.0,220.0,8.12,8.87,,47.59359,-54.27349
2018-06-12 17:30:00+00:00,217.0,224.0,8.08,9.07,,47.59359,-54.27349
2018-06-12 17:40:00+00:00,222.0,222.0,8.54,9.61,,47.59359,-54.27349
2018-06-12 17:50:00+00:00,218.0,221.0,8.46,9.88,,47.59359,-54.27349
2018-06-12 18:00:00+00:00,217.0,218.0,8.81,9.97,,47.59359,-54.27349
2018-06-12 18:10:00+00:00,217.0,218.0,8.91,9.73,,47.59359,-54.27349
2018-06-12 18:20:00+00:00,218.0,217.0,9.2,11.14,,47.59359,-54.27349
2018-06-12 18:30:00+00:00,219.0,222.0,10.19,11.18,,47.59359,-54.27349
2018-06-12 18:40:00+00:00,220.0,220.0,9.54,10.49,,47.59359,-54.27349
2018-06-12 18:50:00+00:00,218.0,217.0,9.47,10.16,,47.59359,-54.27349
2018-06-12 19:00:00+00:00,224.0,225.0,9.45,10.62,,47.59359,-54.27349
2018-06-12 19:10:00+00:00,222.0,223.0,9.32,10.36,,47.59359,-54.27349
2018-06-12 19:20:00+00:00,220.0,219.0,9.07,10.16,,47.59359,-54.27349
2018-06-12 19:30:00+00:00,224.0,225.0,9.23,10.61,,47.59359,-54.27349
2018-06-12 19:40:00+00:00,226.0,220.0,8.73,9.75,,47.59359,-54.27349
2018-06-12 19:50:00+00:00,227.0,229.0,8.63,10.02,,47.59359,-54.27349
2018-06-12 20:00:00+00:00,222.0,220.0,9.04,10.1,,47.59359,-54.27349
2018-06-12 20:10:00+00:00,223.0,225.0,8.77,9.83,,47.59359,-54.27349
2018-06-12 20:20:00+00:00,225.0,227.0,7.96,8.69,,47.59359,-54.27349
2018-06-12 20:30:00+00:00,226.0,228.0,8.5,9.47,,47.59359,-54.27349
2018-06-12 20:40:00+00:00,231.0,230.0,7.43,8.32,,47.59359,-54.27349
2018-06-12 20:50:00+00:00,226.0,224.0,6.04,6.35,,47.59359,-54.27349
2018-06-12 21:00:00+00:00,218.0,217.0,4.99,5.41,,47.59359,-54.27349
2018-06-12 21:10:00+00:00,216.0,217.0,4.25,4.45,,47.59359,-54.27349
2018-06-12 21:20:00+00:00,233.0,233.0,2.82,3.44,,47.59359,-54.27349
2018-06-12 21:30:00+00:00,240.0,240.0,2.75,3.13,,47.59359,-54.27349
2018-06-12 21:40:00+00:00,259.0,255.0,3.9,5.08,,47.59359,-54.27349
2018-06-12 21:50:00+00:00,251.0,249.0,3.36,4.08,,47.59359,-54.27349
2018-06-12 22:00:00+00:00,258.0,259.0,4.65,6.35,,47.59359,-54.27349
2018-06-12 22:10:00+00:00,255.0,251.0,6.46,6.89,,47.59359,-54.27349
2018-06-12 22:20:00+00:00,257.0,263.0,6.36,6.79,,47.59359,-54.27349
2018-06-12 22:30:00+00:00,257.0,258.0,6.02,6.32,,47.59359,-54.27349
2018-06-12 22:40:00+00:00,252.0,251.0,5.48,5.94,,47.59359,-54.27349
2018-06-12 22:50:00+00:00,234.0,238.0,5.48,6.42,,47.59359,-54.27349
2018-06-12 23:00:00+00:00,224.0,225.0,7.06,7.88,,47.59359,-54.27349
2018-06-12 23:10:00+00:00,234.0,233.0,7.87,8.64,,47.59359,-54.27349
2018-06-12 23:20:00+00:00,232.0,232.0,7.76,8.59,,47.59359,-54.27349
2018-06-12 23:30:00+00:00,231.0,233.0,7.09,8.14,,47.59359,-54.27349
2018-06-12 23:40:00+00:00,226.0,219.0,6.65,8.49,,47.59359,-54.27349
2018-06-12 23:50:00+00:00,229.0,230.0,7.15,7.77,,47.59359,-54.27349
